Other Public Products
Issued by NWS Grand Forks, ND

Home | Current Version | Previous Version | Graphics & Text | Print | Product List | Glossary On
Versions: 1 2 3 4 5 6 7 8 9 10 11 12 13 14 15 16 17 18 19 20 21 22 23 24 25 26 27 28 29 30 31 32 33 34 35 36 37 38 39 40 41 42 43 44 45 46 47 48 49 50
000
FPUS83 KFGF 010610
OPUFGF
PRAIRIE TO PINES WEATHER ROUNDUP
NATIONAL WEATHER SERVICE EASTERN NORTH DAKOTA/GRAND FORKS ND
100 AM CDT FRI AUG 01 2014

 **SATELLITE DATA USED TO AUGMENT SKY COVER AT AUTOMATED STATIONS**
 *****  WEATHER ACROSS EASTERN NORTH DAKOTA  *****

CITY           SKY/WX    TMP DP  RH WIND       PRES   REMARKS
GRAND FORKS    CLEAR     63  61  93 CALM      30.01S
6HR MIN TEMP:  63; 6HR MAX TEMP:  82;

GRAND FORKS AF CLEAR     62  62 100 W2        30.03R
GRAND CITY NWS   N/A     66 N/A N/A MISG        N/A
BUXTON         NOT AVBL
DEVILS LAKE    PTCLDY    64  57  77 CALM      30.04R
6HR MIN TEMP:  64; 6HR MAX TEMP:  81;

FARGO          CLEAR     66  60  81 S5        30.01S
6HR MIN TEMP:  66; 6HR MAX TEMP:  82;

WAHPETON ARPT  CLEAR     63  55  77 CALM      30.04R
$$

 *****  WEATHER ACROSS CENTRAL AND WESTERN NORTH DAKOTA  *****

CITY           SKY/WX    TMP DP  RH WIND       PRES   REMARKS
JAMESTOWN      CLEAR     62  58  86 CALM      30.05R
6HR MIN TEMP:  61; 6HR MAX TEMP:  81;

BISMARCK       CLEAR     65  57  75 NE7       30.05S
6HR MIN TEMP:  65; 6HR MAX TEMP:  85;

MINOT          CLEAR     64  57  78 CALM      30.05S
6HR MIN TEMP:  63; 6HR MAX TEMP:  81;

MINOT AFB      CLEAR     58  58  99 NE1       30.05S
6HR MIN TEMP:  57; 6HR MAX TEMP:  80;

GARRISON         N/A     62  56  80 CALM      30.06S
6HR MIN TEMP:  61; 6HR MAX TEMP:  81;

WILLISTON      CLEAR     69  59  70 CALM      30.05R
6HR MIN TEMP:  67; 6HR MAX TEMP:  87;

DICKINSON      CLEAR     61  56  83 E8        30.05S
6HR MIN TEMP:  61; 6HR MAX TEMP:  84;

HETTINGER      CLEAR     65  54  67 SE7       30.07S
6HR MIN TEMP:  65; 6HR MAX TEMP:  86;

$$

 *****  OTHER OBSERVATIONS NORTHEAST NORTH DAKOTA  *****

CITY           SKY/WX    TMP DP  RH WIND       PRES   REMARKS
WALHALLA         N/A     57  57 100 CALM        N/A
LANGDON        FAIR      61  57  88 NE3       30.07R
CAVALIER       FAIR      63  57  82 NW3       30.03R
GRAFTON        FAIR      64  64 100 NW3       30.02S
CANDO          FAIR      59  59 100 NE6       30.07R
FORT TOTTEN    NOT AVBL
ROLLA          CLOUDY    59  59 100 N3        30.09S
RUGBY          FAIR      59  59 100 CALM      30.06R
 ***** THE ABOVE OBSERVATIONS ARE NON NWS ARE NOT QUALITY
        CONTROLLED AND MAY MIS-REPORT RAIN FOR SNOW...
$$

 *****  OTHER OBSERVATIONS SOUTHEAST NORTH DAKOTA *****

CITY           SKY/WX    TMP DP  RH WIND       PRES   REMARKS
COOPERSTOWN    NOT AVBL
VALLEY CITY    FAIR      61  61 100 CALM      30.04S
OAKES          NOT AVBL
GWINNER          N/A     63  63 100 SW6       30.05S
BUFFALO        NOT AVBL
WYNDMERE       NOT AVBL
 ***** THE ABOVE OBSERVATIONS ARE NON NWS ARE NOT QUALITY
       CONTROLLED AND MAY MIS-REPORT RAIN FOR SNOW...
$$

  *****  WEATHER ACROSS NORTHERN MINNESOTA  *****

CITY           SKY/WX    TMP DP  RH WIND       PRES   REMARKS
FLAG ISLAND    CLEAR     70  63  78 CALM      30.00R
WARROAD        CLEAR     59  55  88 W3        30.02R
ROSEAU           N/A     63  54  72 W5        30.02R
HALLOCK        CLEAR     63  59  88 CALM      30.02R
THF RVR FALLS  CLEAR     64  61  88 CALM      30.03R
6HR MIN TEMP:  64; 6HR MAX TEMP:  79;

HALSTAD          N/A     62  59  89 SW6         N/A
FOSSTON        PTCLDY    57  55  94 CALM      30.04S FOG
BAUDETTE       CLEAR     59  57  93 CALM      30.02R
6HR MIN TEMP:  58; 6HR MAX TEMP:  77;

WASKISH        CLEAR     55  55 100 CALM      30.02R
CROOKSTON      CLEAR     64  63  94 CALM      30.03R
$$
  *****  WEATHER ACROSS CENTRAL AND WEST MINNESOTA  *****

CITY           SKY/WX    TMP DP  RH WIND       PRES   REMARKS
BEMIDJI        CLEAR     58  57  96 CALM      30.03R
PARK RAPIDS    CLEAR     58  57  97 W3        30.04R
6HR MIN TEMP:  58; 6HR MAX TEMP:  77;

WADENA         CLEAR     59  57  94 CALM      30.04S
DETROIT LAKES  CLEAR     63  63 100 CALM      30.05S
MOORHEAD       CLEAR     66  64  94 CALM      30.03S
FERGUS FALLS   CLEAR     64  57  77 CALM      30.03S
ELBOW LAKE     FAIR      63  61  94 S3        30.04S
6HR MIN TEMP:  62; 6HR MAX TEMP:  77;

MORRIS MN      CLEAR     61  59  94 CALM      30.04R
STAPLES        NOT AVBL
WHEATON        CLEAR     61  55  82 CALM      30.06R
$$
  *****  WEATHER ELSEWHERE ACROSS MINNESOTA  *****

CITY           SKY/WX    TMP DP  RH WIND       PRES   REMARKS
DULUTH         PTCLDY    60  55  83 CALM      30.02R
6HR MIN TEMP:  60; 6HR MAX TEMP:  77;

INTRNTL FALLS  CLEAR     51  50  96 CALM      30.00S
6HR MIN TEMP:  51; 6HR MAX TEMP:  74;

ELY            CLEAR     52  48  87 CALM      30.01S
CLOQUET        CLEAR     59  55  88 CALM      30.02S
BRAINERD       CLEAR     59  59 100 CALM      30.03S
6HR MIN TEMP:  58; 6HR MAX TEMP:  76;

HIBBING        FOG       53  50  89 CALM      30.02R VSB 1
6HR MIN TEMP:  52; 6HR MAX TEMP:  76;

ALEXANDRIA     CLEAR     64  61  90 SW3       30.06S
6HR MIN TEMP:  64; 6HR MAX TEMP:  78;

SAINT CLOUD    CLEAR     63  59  87 CALM      30.02S
6HR MIN TEMP:  63; 6HR MAX TEMP:  83;

MINNEAPOLIS    CLEAR     71  60  68 SW3       30.02S
6HR MIN TEMP:  70; 6HR MAX TEMP:  80;

$$

  *****  WEATHER ACROSS SOUTH DAKOTA  *****

CITY           SKY/WX    TMP DP  RH WIND       PRES   REMARKS
SIOUX FALLS    CLEAR     61  59  93 SW3       30.08R
6HR MIN TEMP:  59; 6HR MAX TEMP:  73;

BROOKINGS      NOT AVBL
WATERTOWN      CLEAR     61  55  81 CALM      30.08R
6HR MIN TEMP:  59; 6HR MAX TEMP:  77;

HURON          CLEAR     61  57  87 CALM      30.06R
6HR MIN TEMP:  61; 6HR MAX TEMP:  81;

SISSETON         N/A     61  59  93 CALM      30.04R
ABERDEEN       CLEAR     57  55  93 S3        30.05S
6HR MIN TEMP:  56; 6HR MAX TEMP:  79;

MITCHELL       CLEAR     67  60  78 S5        30.07R
PIERRE         CLEAR     64  59  83 SE6       30.05S
6HR MIN TEMP:  64; 6HR MAX TEMP:  86;

MOBRIDGE       PTCLDY    63  58  83 SE6       30.03S
RAPID CITY     PTCLDY    60  51  72 NW7       30.12F
6HR MIN TEMP:  60; 6HR MAX TEMP:  84; 6HR PCP:  0.01;

$$

  *****  SOME WEATHER IN NEARBY STATES *****

CITY           SKY/WX    TMP DP  RH WIND       PRES   REMARKS
GLASGOW MT     MOCLDY    75  48  38 NW6       30.00S
6HR MIN TEMP:  75; 6HR MAX TEMP:  95;

GREAT FALLS MT PTCLDY    68  42  38 S6        30.13S
6HR MIN TEMP:  63; 6HR MAX TEMP:  92;

CHEYENNE WY    CLEAR     59  49  69 NW5       30.32R
6HR MIN TEMP:  58; 6HR MAX TEMP:  74;

SCOTTSBLUFF NE CLEAR     61  52  72 E7        30.19S
6HR MIN TEMP:  61; 6HR MAX TEMP:  85;

OMAHA NE       CLOUDY    73  58  59 S9        30.06S THUNDER
6HR MIN TEMP:  71; 6HR MAX TEMP:  81;

DES MOINES IA  PTCLDY    68  61  78 CALM      30.06S
6HR MIN TEMP:  65; 6HR MAX TEMP:  72;

DAVENPORT IA   PTCLDY    65  60  84 CALM      30.06S
6HR MIN TEMP:  61; 6HR MAX TEMP:  77;

CHICAGO IL     CLEAR     67  57  70 SW5       30.04S
6HR MIN TEMP:  67; 6HR MAX TEMP:  80;

EAU CLAIRE WI  CLEAR     66  60  81 CALM      30.00S
6HR MIN TEMP:  65; 6HR MAX TEMP:  76;

LA CROSSE WI   CLEAR     67  62  84 S7        30.02S
6HR MIN TEMP:  66; 6HR MAX TEMP:  80;

$$

  *****  SOME NATIONAL WEATHER *****

CITY           SKY/WX    TMP DP  RH WIND       PRES   REMARKS
LA GUARDIA NY  PTCLDY    73  64  73 S9        30.15R



USA.gov is the U.S. government's official web portal to all federal, state and local government web resources and services.